Location: Overspoor
(51.4747°N, 5.6641°E)
Time: 05:52:17
(UTC+02:00)

YUBILEINY - Pass Details

Date: 04 July 2022
Orbit: 1478 x 1509 km, 82.5° (Epoch: 17 August)

Event Time Altitude Azimuth Distance (km) Brightness Sun altitude
Rises 22:29:18 0° 283° (WNW) 4,655 ? -4.6°
Reaches altitude 10° 22:37:20 10° 328° (NNW) 3,676 ? -5.4°
Maximum altitude 22:37:40 10° 330° (NNW) 3,674 ? -5.5°
Drops below altitude 10° 22:38:00 10° 332° (NNW) 3,676 ? -5.5°
Sets 22:46:05 0° 18° (NNE) 4,652 ? -6.3°
